Location: Lombard
(41.8800°N, 88.0080°W)
Time: 22:54:13
(UTC-05:00)

DX 1 - Pass Details

Date: 13 June 2023
Orbit: 614 x 623 km, 98.3° (Epoch: 02 October)

Event Time Altitude Azimuth Distance (km) Brightness Sun altitude
Rises 00:19:08 0° 2° (N) 2,917 ? -24.5°
Reaches altitude 10° 00:21:33 10° 351° (N) 2,003 ? -24.5°
Maximum altitude 00:25:16 28° 292° (WNW) 1,174 ? -24.6°
Enters shadow 00:26:26 24° 265° (W) 1,280 ? -24.7°
